Regional Weather Roundup
Issued by NWS New Orleans/Baton Rouge, LA

Home | Current Version | Previous Version | Text Only | Print | Product List | Glossary On
Versions: 1 2 3 4 5 6 7 8 9 10 11 12 13 14 15 16 17 18 19 20 21 22 23 24 25 26 27 28 29 30 31 32 33 34 35 36 37 38 39 40 41 42 43 44 45 46 47 48 49 50
313
ASUS44 KLIX 190601
RWRLIX
NEW ORLEANS REGIONAL WEATHER ROUNDUP
NATIONAL WEATHER SERVICE NEW ORLEANS LA
1200 AM CST FRI DEC 19 2014

NOTE: "FAIR" INDICATES FEW OR NO CLOUDS BELOW 12,000 FEET WITH NO
      SIGNIFICANT WEATHER AND/OR OBSTRUCTIONS TO VISIBILITY.
      SKY/WX - SKY CONDITION AND SIGNIFICANT WEATHER.
      TMP - AIR TEMPERATURE.     DP    - DEWPOINT TEMPERATURE.
      RH  - RELATIVE HUMIDITY.   PRES  - PRESSURE.
      HI  - HEAT INDEX.          WCI   - WIND CHILL INDEX.

*  THESE STATIONS ARE NOT NWS OR FAA STATIONS AND ARE NOT UNDER
   NWS QUALITY CONTROL.

LAZ038-040-048-061>063-065>067-069-190700-
SOUTHEAST LOUISIANA

CITY           SKY/WX    TMP DP  RH WIND       PRES   REMARKS
N.O. AUDUBON     N/A     59  56  91 MISG        N/A
6HR MIN TEMP:  58; 6HR MAX TEMP:  64; 6HR PCP:  0.07;

N.O. INTL ARPT CLOUDY    58  53  84 E8        30.12F
6HR MIN TEMP:  58; 6HR MAX TEMP:  63; 6HR PCP:  0.03;

N.O. LAKEFRONT CLOUDY    60  54  80 E8        30.13F
6HR MIN TEMP:  59; 6HR MAX TEMP:  61; 6HR PCP:  0.03;

N.O. DOWNTOWN* CLOUDY    57  48  72 NE7       30.13F
6HR MIN TEMP:  57; 6HR MAX TEMP:  63; 6HR PCP:  0.01;

SLIDELL        CLOUDY    56  51  84 NE5       30.14F
6HR MIN TEMP:  56; 6HR MAX TEMP:  60; 6HR PCP: TRACE;

BATON ROUGE    CLOUDY    55  53  93 E8        30.11F
6HR MIN TEMP:  55; 6HR MAX TEMP:  57; 6HR PCP:  0.01;

BOOTHVILLE     CLOUDY    59  58  96 NE3       30.12F
6HR MIN TEMP:  59; 6HR MAX TEMP:  63;

BELLE CHASSE   CLOUDY    59  54  83 NE3       30.12F
6HR MIN TEMP:  57; 6HR MAX TEMP:  61; 6HR PCP:  0.02;

BOGALUSA*        N/A     53  50  89 CALM      30.17F
6HR MIN TEMP:  53; 6HR MAX TEMP:  55; 6HR PCP:  0.06;

GALLIANO*      NOT AVBL
NEW ROADS*     NOT AVBL
GONZALES*      NOT AVBL
HAMMOND*       NOT AVBL
HOUMA*         LGT RAIN  58  57  99 NE6       30.11F
6HR MIN TEMP:  58; 6HR MAX TEMP:  62; 6HR PCP:  0.08;

PORT FOURCHON* CLOUDY    64  61  88 NE6       30.14S

$$

MSZ070-080>082-190700-
SOUTHERN MISSISSIPPI

CITY           SKY/WX    TMP DP  RH WIND       PRES   REMARKS
MCCOMB         CLOUDY    51  49  92 NE3       30.14F
6HR MIN TEMP:  50; 6HR MAX TEMP:  51;

GULFPORT       CLOUDY    54  50  86 NE6       30.14F
6HR MIN TEMP:  54; 6HR MAX TEMP:  59; 6HR PCP: TRACE;

BILOXI         CLOUDY    54  51  87 NE9       30.14F
6HR MIN TEMP:  54; 6HR MAX TEMP:  59;

PASCAGOULA     CLOUDY    55  46  71 NE5       30.15F
6HR MIN TEMP:  55; 6HR MAX TEMP:  58;


$$

COASTAL OBSERVATIONS
LAKE AND NEARSHORE STATIONS

STATION/POSITION TIME  TEMP    WIND        PRES    WAVE
                       AIR SEA DIR/SP/G            HT/PER
                 (UTC) (F)     (DEG/KT/KT) (MB)    (FT/S)
PASCAGOULA       0500   58      30/  6/  9 1020.6
WAVELAND YACHT   0500   56      50/  9/ 10 1020.2
GRAND ISLE       0500   63 62   60/  6/  8 1020.1
SOUTHWEST PASS   0500   62                 1019.6
NEW CANAL        0500   58 58   70/  5/  6 1020.9
SHELL BEACH      0500   60 60   60/ 11/ 12 1020.1

OFFSHORE STATIONS

STATION/POSITION TIME  TEMP    WIND        PRES    WAVE
                       AIR SEA DIR/SP/G            HT/PER
                 (UTC) (F)     (DEG/KT/KT) (MB)    (FT/S)
64 S DAUPHIN ISL 0600   69 75  100/  8/ 10 1019.8    1/ 4

$$




USA.gov is the U.S. government's official web portal to all federal, state and local government web resources and services.